Zurück zum Katalog

STARLINK-38189

AktivKommunikationSSO
NORAD 100213·PAYLOAD·🇺🇸 United States

Gestartet Aug 4, 2026 von Vandenberg Space Force Base

Loading…

Nächste Überflüge (nächste 24 Stunden)

TLE

AktuellSource: Space-Track

Epoche: Sep 14, 2026, 15:00 UTC

1 A0213U 26177A   26257.62542682  .00036537  00000-0  66963-3 0  9993
2 A0213  97.2832 308.4054 0001519 106.3183 253.8236 15.49218937  6454

Verfolge STARLINK-38189 in Echtzeit mit AllMySat

Download on the App Store